Вернуться в каталог

FENGYUN 1C DEB

АктивенSSO
NORAD 37690·DEBRIS·🇨🇳 China

Запущен May 10, 1999 с Taiyuan Satellite Launch Center

Loading…

Ближайшие Пролёты (ближайшие 24 часа)

TLE

УстаревшееSource: Space-Track

Эпоха: Aug 26, 2026, 08:18 UTC

1 37690U 99025ELF 26238.34641382  .00001185  00000-0  59655-3 0  9990
2 37690  98.7368 280.6094 0038222 279.9041 139.8849 14.17949965674011

Отслеживайте FENGYUN 1C DEB в реальном времени с AllMySat

Download on the App Store